Terminal Aerodrome Forecast
Issued by NWS

Home | Current Version | Previous Version | Text Only | Print | Product List | Glossary Off
Versions: 1 2 3 4 5 6 7 8 9 10 11 12 13 14 15 16 17 18 19 20

000
FTUS43 KFGF 110500
TAFBJI
TAF
KBJI 110539Z 1106/1206 19006KT P6SM BKN035
      TEMPO 1106/1108 1SM -TSRA BKN017CB
     FM110800 19006KT P6SM VCSH BKN050
     FM111500 23007KT P6SM BKN080
     FM111800 27010KT P6SM SCT250=

USA.gov is the U.S. government's official web portal to all federal, state and local government web resources and services.